This is the latest recevied weather packets stored in our database for station/object AI5BL. If no packets are shown the sender has not sent any weather packets the latest 10 day(s).
| Time | Temp. | Humidity | Pressure | Rain* | Wind** | Luminosity | Snow |
|---|---|---|---|---|---|---|---|
| 1777389085 | 27.22° C | 76% | 1020.6 hPa | 0 mm | - | 585 W/m² | - |
| 1777388783 | 27.78° C | 75% | 1020.7 hPa | 0 mm | - | 355 W/m² | - |
| 1777388480 | 27.78° C | 75% | 1020.6 hPa | 0 mm | - | 548 W/m² | - |
| 1777388174 | 27.78° C | 74% | 1020.8 hPa | 0 mm | - | 506 W/m² | - |
| 1777387864 | 27.78° C | 73% | 1020.8 hPa | 0 mm | - | 465 W/m² | - |
| 1777387561 | 26.67° C | 74% | 1020.6 hPa | 0 mm | - | 383 W/m² | - |
| 1777387257 | 26.11° C | 79% | 1020.7 hPa | 0 mm | - | 444 W/m² | - |
| 1777386951 | 26.11° C | 79% | 1020.5 hPa | 0 mm | - | 438 W/m² | - |
| 1777386649 | 26.11° C | 81% | 1020.6 hPa | 0 mm | - | 421 W/m² | - |
| 1777386346 | 25.56° C | 80% | 1020.6 hPa | 0 mm | - | 392 W/m² | - |
| 1777386044 | 25.56° C | 80% | 1020.4 hPa | 0 mm | - | 373 W/m² | - |
| 1777385740 | 25.56° C | 81% | 1020.1 hPa | 0 mm | - | 362 W/m² | - |
| 1777385437 | 25.56° C | 81% | 1020.2 hPa | 0 mm | - | 340 W/m² | - |
| 1777385133 | 25.56° C | 83% | 1020.4 hPa | 0 mm | - | 281 W/m² | - |
| 1777384829 | 25.56° C | 84% | 1020.2 hPa | 0 mm | - | 341 W/m² | - |
| 1777384527 | 25° C | 85% | 1020.2 hPa | 0 mm | - | 325 W/m² | - |
| 1777384222 | 24.44° C | 86% | 1020.2 hPa | 0 mm | - | 296 W/m² | - |
| 1777383918 | 23.89° C | 88% | 1020.3 hPa | 0 mm | - | 304 W/m² | - |
| 1777383614 | 23.89° C | 90% | 1020.4 hPa | 0 mm | - | 227 W/m² | - |
| 1777383310 | 23.89° C | 91% | 1020.4 hPa | 0 mm | - | 148 W/m² | - |
| 1777383007 | 23.89° C | 92% | 1020.4 hPa | 0 mm | - | 130 W/m² | - |
| 1777382703 | 23.33° C | 91% | 1020.5 hPa | 0 mm | - | 157 W/m² | - |
| 1777382398 | 23.33° C | 92% | 1020.5 hPa | 0 mm | - | 142 W/m² | - |
| 1777382095 | 23.33° C | 93% | 1020.4 hPa | 0 mm | - | 123 W/m² | - |
| 1777381791 | 22.78° C | 93% | 1020.5 hPa | 0 mm | - | 137 W/m² | - |
* Rain latest hour (hover to see other rain measurements)
** Current wind speed in m/s (hover to see current wind gust speed)